Flag for Poland Weather past 2 weeks in Grudziądz, Poland

Now
53 °F

Overcast.


Feels Like: 53 °F
Forecast: 40 / 62 °F
Wind: 3 mph from South

Location: Torun


UV Index: 3 (Moderate)

Visibility: 22 mi


Pressure: 30.11 "Hg

Humidity: 35%

Dew point: 26 °F

Location of GrudziądzLocation

Historic Weather in Grudziądz

°F

Grudziądz temperature yesterday

Maximum temperature yesterday: 51 °F (at 4:00 PM)
Minimum temperature yesterday: 31 °F (at 11:00 PM)
Average temperature yesterday: 42 °F

Past Weeks' High & Low Weather Summary

 TemperatureHumidityPressure
High73 °F (Apr 8, 2:00 PM)100% (Apr 11, 4:00 AM)30.42 "Hg (Apr 11, 4:00 AM)
Low24 °F (Apr 17, 6:00 AM)29% (Apr 5, 6:00 PM)29.60 "Hg (Apr 14, 3:00 PM)
Average47 °F71%29.99 "Hg
* Reported Apr 2 6:00 PM — Apr 17 6:00 PM, Grudziądz, Weather by CustomWeather, © 2014

Note: Actual official high and low records may vary slightly from our data, if they occured in-between our weather recording intervals... More about our weather records

Advertising

Historic Weather Conditions — Data for Previous 24 hours

 ConditionsComfort  
Time TempWeatherWind HumidityBarometerVisibility
6:00 PM
Apr 17
53 °FOvercast.3 mph35%30.11 "Hg22 mi
5:00 PM54 °FOvercast.2 mph34%30.14 "Hg28 mi
4:00 PM55 °FPartly sunny.2 mph36%30.17 "Hg25 mi
3:00 PM54 °FPartly sunny.2 mph35%30.21 "Hg22 mi
2:00 PM54 °FPartly sunny.2 mph40%30.24 "Hg22 mi
1:00 PM53 °FPartly sunny.2 mph39%30.27 "Hg22 mi
12:00 PM53 °FPartly sunny.3 mph40%30.29 "Hg22 mi
11:00 AM51 °FPartly sunny.3 mph40%30.33 "Hg19 mi
10:00 AM49 °FPartly sunny.3 mph39%30.35 "Hg28 mi
9:00 AM44 °FScattered clouds.3 mph55%30.37 "Hg19 mi
8:00 AM40 °FFog.1 mph78%30.37 "Hg4 mi
7:00 AM30 °FFog.No wind98%30.39 "Hg4 mi
6:00 AM24 °FFog.No wind97%30.39 "Hg4 mi
5:00 AM25 °FFog.No wind97%30.40 "Hg4 mi
4:00 AM26 °FFog.No wind96%30.41 "Hg5 mi
3:00 AM26 °FClear.No wind95%30.42 "Hg6 mi
2:00 AM27 °FClear.No wind94%30.41 "Hg6 mi
1:00 AM28 °FClear.No wind93%30.42 "Hg6 mi
12:00 AM29 °FClear.No wind90%30.42 "Hg6 mi
11:00 PM
Apr 16
31 °FClear.No wind86%30.42 "Hg16 mi
10:00 PM34 °FClear.1 mph76%30.42 "Hg28 mi
Weather by CustomWeather, © 2014

See weather overview